一网星座-0377星 (ONEWEB-0377 )

导读

ONEWEB-0377是英国OneWeb卫星星座的组网卫星,由一网卫星公司联合空客防务与航天公司打造,于2021年10月14日发射入轨。该卫星运行于约1200公里近地轨道,属于低轨通信卫星,单星设计寿命约7年,配备Ku频段有效载荷,可为全球提供高速互联网接入服务,是OneWeb构建全球天基通信网络的重要组成部分。

Basic Information
目录编号:
49303
目录名称:
ONEWEB-0377
国际标识:
2021-090AA
轨道中心:
EARTH
卫星名称:
一网星座-0377星
卫星全名:
一网星座-0377星 (ONEWEB-0377 )
卫星状态:
在轨 (已飞行1794 天)
发射日期:
2021-10-14 UTC
国别 :
英国 (GB)
星等 :
--
This satellite is enrolled in the Space Conjunction Data Service (SCDS) and the current flight risk assessment level is: No High Risk
Orbit Information
数据来源 国际轨道数据 AOE轨道数据
星历时间 2026-09-12T02:03:34+0800
12小时前
查看轨道信息
2026-09-06T23:00:00+0800
5天前
查看轨道信息
半长轴 7559.907km 7559.916km
偏心率 0.000215 0.0001701
轨道倾角 87.914° 87.917°
近地点辐角 96.666° 100.017°
升交点赤经 257.169° 258.193°
平近点角 263.471° 14.061°
近地点 1180.144km 1180.493km
远地点 1183.396km 1183.065km
周期 109.027分钟 109.027分钟
每日圈数 13.207728 13.207706
Detailed Information
平衡模式:
三轴稳定
覆盖范围:
全球
运营商:
一网卫星公司
运营商所在国:
英国
制造商(研发单位):
一网卫星公司
制造商所在国:
英国
使用方式:
暂无
Satellite Introduction
OneWeb卫星网络由648颗重约125公斤的微型卫星组成,运行在1200公里的轨道上。 每颗卫星都能够提供至少每秒8千兆位的吞吐量,以使用其高吞吐量的Ku频段有效载荷为家庭和移动平台提供互联网接入。该卫星仍在工作。
2D Orbit Map
3D Orbit Map
Orbit Altitude Analysis Chart
Orbit Inclination Analysis Chart
Orbit Comprehensive Analysis Chart
View Comprehensive Chart
Miss Distance Evolution Trend with All Objects
Collision Probability Evolution Trend with All Objects